ANACAPA ISLAND CA US current weather conditions

sailwx.info

Wind from 321 at 6 knots gusting 15

Air temperature 17.2° C
Dewpoint 8.6° C

Last reported at 2016-Feb-14 15:23 UTC.
Time now 2016-Feb-14 17:00 UTC

Location: N 34°01' W 119°22'.
View on Google Maps.

See reports from other nearby stations

  
Tides and Currents Weather Stations Pressure Air Temp Water Temp Dewpoint Dewpoint Depression Visibility Wind Speed Wind Dir Waves Ship Positions
date/time (UTC)wind fromknots sea level pressurealtimeterstation pressurevisibilityair tempwater tempwave heightnotes
2016-Feb-14 15:23 321 6 gusting 15 17.2
2016-Feb-14 14:23 315 6 gusting 14 16.7
2016-Feb-14 13:23 303 5 gusting 16 17.2
2016-Feb-14 12:23 320 6 gusting 16 17.8
2016-Feb-14 11:23 309 7 gusting 14 17.2
2016-Feb-14 10:23 305 6 gusting 13 19.4
2016-Feb-14 09:23 312 6 gusting 15 17.8
2016-Feb-14 08:23 322 8 gusting 14 18.3
2016-Feb-14 07:23 342 8 gusting 13 16.1
2016-Feb-14 06:23 331 7 gusting 17 16.1
2016-Feb-14 05:23 327 7 gusting 12 15.6
2016-Feb-14 04:23 328 7 gusting 10 13.9
2016-Feb-14 03:23 338 4 gusting 6 13.9
2016-Feb-14 02:23 347 5 gusting 8 13.3
2016-Feb-14 01:23 329 0 gusting 6 16.1
2016-Feb-14 00:23 251 1 gusting 6 17.2
2016-Feb-13 23:23 325 4 gusting 6 15.0
2016-Feb-13 22:23 306 3 gusting 11 16.7
2016-Feb-13 21:23 235 6 gusting 9 15.6
2016-Feb-13 20:23 205 2 gusting 6 15.0
2016-Feb-13 19:23 163 3 gusting 6 13.3
2016-Feb-13 18:23 095 3 gusting 6 12.8
2016-Feb-13 17:23 041 1 gusting 4 12.2
2016-Feb-13 16:23 12.2
2016-Feb-13 15:23 071 1 gusting 7 12.2
2016-Feb-13 14:23 037 2 gusting 8 12.2
2016-Feb-13 13:23 092 4 gusting 9 12.8
2016-Feb-13 12:23 064 3 gusting 6 13.9
2016-Feb-13 11:23 017 3 gusting 6 13.9
2016-Feb-13 10:23 011 3 gusting 5 13.9
2016-Feb-13 09:23 006 4 gusting 5 13.9
2016-Feb-13 08:23 322 5 gusting 7 14.4
2016-Feb-13 07:23 323 6 gusting 8 14.4
2016-Feb-13 06:23 317 6 gusting 10 14.4
2016-Feb-13 05:23 347 6 gusting 6 14.4
2016-Feb-13 04:23 324 5 gusting 8 14.4
2016-Feb-13 03:23 324 6 gusting 10 14.4
2016-Feb-13 02:23 305 7 gusting 10 15.0
2016-Feb-13 01:23 306 6 gusting 10 15.6
2016-Feb-13 00:23 304 7 gusting 11 16.7
2016-Feb-12 23:23 299 6 gusting 9 17.2
2016-Feb-12 22:23 293 4 gusting 6 17.8
2016-Feb-12 21:23 294 3 gusting 6 18.3
2016-Feb-12 20:23 228 0 gusting 3 21.1
2016-Feb-12 19:23 294 2 gusting 7 16.1
2016-Feb-12 18:23 303 6 gusting 7 15.6
2016-Feb-12 17:23 309 5 gusting 7 14.4